West Lebanon, NH

9:41 AM EST on February 28, 2017 (GMT -0500)
Lebanon Municipal

Weather History for KLEB - October, 2011

Change the Weather History Date:

Thursday, October 6, 2011

  Actual Average Record
Temperature  
Mean Temperature 44 °F -  
Max Temperature 59 °F 62 °F 82 °F (1947)
Min Temperature 30 °F 39 °F 22 °F (1984)
Degree Days  
Heating Degree Days 22    
Moisture  
Dew Point 28 °F    
Average Humidity 72    
Maximum Humidity 96    
Minimum Humidity 24    
Precipitation  
Precipitation 0.00 in - - ()
Sea Level Pressure  
Sea Level Pressure 30.30 in    
Wind  
Wind Speed 2 mph (NNW)    
Max Wind Speed 15 mph    
Max Gust Speed 24 mph    
Visibility 8 miles    
Events Fog    
Averages and records for this station are not official NWS values.
T = Trace of Precipitation, MM = Missing Value Source: NWS Daily Summary

Daily Weather History Graph

Daily Weather History Graph

Search for Another Location

Airport or City:

Trip Planner

Search our weather history database for the weather conditions in past years. The results will help you decide how hot, cold, wet, or windy it might be!

Date:

Astronomy

Oct. 06, 2011 Rise Set
Actual Time 6:52 AM EDT 6:21 PM EDT
Civil Twilight 6:23 AM EDT 6:50 PM EDT
Nautical Twilight 5:50 AM EDT 7:23 PM EDT
Astronomical Twilight 5:16 AM EDT 7:56 PM EDT
Moon 3:41 PM EDT (10/6) 1:28 AM EDT (10/6)
Length of Visible Light 12h 26m
Length of Day
11h 29m
Waxing Gibbous, 75% of the Moon is Illuminated
Oct 6
Waxing Gibbous
Oct 11
Full
Oct 19
Last Quarter
Oct 26
New
Nov 2
First Quarter

Hourly Weather History & Observations

Time (EDT) Temp. Windchill Dew Point Humidity Pressure Visibility Wind Dir Wind Speed Gust Speed Precip Events Conditions
12:53 AM 35.1 °F - 33.1 °F 92% 30.24 in 10.0 mi Calm Calm - N/A   Clear
1:53 AM 33.8 °F 30.8 °F 30.2 °F 87% 30.25 in 10.0 mi SSE 3.5 mph - N/A   Clear
2:53 AM 33.1 °F - 30.9 °F 92% 30.26 in 10.0 mi Calm Calm - N/A   Clear
3:53 AM 32.0 °F - 28.9 °F 88% 30.27 in 10.0 mi Calm Calm - N/A   Clear
4:53 AM 32.0 °F - 30.0 °F 92% 30.28 in 10.0 mi Calm Calm - N/A   Clear
5:53 AM 30.9 °F - 28.0 °F 89% 30.30 in 10.0 mi Calm Calm - N/A   Clear
6:42 AM 30.2 °F - 28.4 °F 93% 30.29 in 8.0 mi Calm Calm - N/A   Scattered Clouds
6:46 AM 30.2 °F - 28.4 °F 93% 30.29 in 2.5 mi Calm Calm - N/A   Mostly Cloudy
6:49 AM 30.2 °F - 28.4 °F 93% 30.29 in 0.8 mi Calm Calm - N/A   Mist
6:53 AM 30.0 °F - 28.9 °F 96% 30.31 in 0.5 mi Calm Calm - N/A Fog Light Freezing Fog
7:02 AM 30.2 °F - 28.4 °F 93% 30.29 in 0.2 mi Calm Calm - N/A Fog Light Freezing Fog
7:24 AM 30.2 °F - 28.4 °F 93% 30.29 in 1.2 mi Calm Calm - N/A   Mostly Cloudy
7:27 AM 30.2 °F - 28.4 °F 93% 30.30 in 3.0 mi Calm Calm - N/A   Mostly Cloudy
7:29 AM 30.2 °F - 28.4 °F 93% 30.30 in 0.5 mi Calm Calm - N/A Fog Light Freezing Fog
7:36 AM 30.2 °F - 28.4 °F 93% 30.30 in 3.0 mi Calm Calm - N/A   Clear
7:53 AM 32.0 °F - 30.9 °F 96% 30.32 in 10.0 mi Calm Calm - N/A   Scattered Clouds
8:53 AM 36.0 °F - 33.1 °F 89% 30.33 in 10.0 mi Calm Calm - N/A   Clear
9:53 AM 46.0 °F 43.9 °F 32.0 °F 58% 30.32 in 10.0 mi WNW 4.6 mph - N/A   Clear
10:53 AM 51.1 °F - 28.9 °F 43% 30.31 in 10.0 mi NW 9.2 mph 16.1 mph N/A   Clear
11:53 AM 53.1 °F - 27.0 °F 37% 30.30 in 10.0 mi NW 13.8 mph 20.7 mph N/A   Clear
12:53 PM 55.0 °F - 21.9 °F 28% 30.28 in 10.0 mi NNW 15.0 mph 20.7 mph N/A   Clear
1:53 PM 57.0 °F - 21.9 °F 26% 30.26 in 10.0 mi NNW 10.4 mph 18.4 mph N/A   Clear
2:53 PM 57.0 °F - 19.9 °F 24% 30.25 in 10.0 mi North 10.4 mph 24.2 mph N/A   Clear
3:53 PM 57.9 °F - 21.0 °F 24% 30.25 in 10.0 mi NNW 5.8 mph - N/A   Clear
4:53 PM 57.0 °F - 21.0 °F 25% 30.25 in 10.0 mi NW 9.2 mph - N/A   Clear
5:53 PM 54.0 °F - 21.9 °F 29% 30.27 in 10.0 mi North 9.2 mph - N/A   Clear
6:53 PM 48.0 °F - 25.0 °F 41% 30.30 in 10.0 mi North 4.6 mph - N/A   Clear
7:53 PM 39.0 °F - 32.0 °F 76% 30.33 in 10.0 mi Calm Calm - N/A   Clear
8:53 PM 39.2 °F - 30.2 °F 70% 30.33 in 10.0 mi Calm Calm - N/A   Clear
9:53 PM 35.1 °F 32.2 °F 30.9 °F 85% 30.37 in 10.0 mi South 3.5 mph - N/A   Clear
10:53 PM 35.1 °F - 30.9 °F 85% 30.37 in 10.0 mi Calm Calm - N/A   Clear
11:53 PM 33.1 °F - 30.9 °F 92% 30.37 in 10.0 mi Calm Calm - N/A   Clear